Hamilton Airport, Ontario

12:47 AM EST on November 18, 2017 (GMT -0500)
Hamilton Airport

Weather History for CYHM - October, 2011

Change the Weather History Date:

Tuesday, October 4, 2011

  Actual Average Record
Temperature  
Mean Temperature 60 °F -  
Max Temperature 68 °F 55 °F 78 °F (2002)
Min Temperature 50 °F 39 °F 30 °F (1996)
Degree Days  
Heating Degree Days 6    
Growing Degree Days 10 (Base 50)    
Moisture  
Dew Point 50 °F    
Average Humidity 79    
Maximum Humidity 100    
Minimum Humidity 46    
Precipitation  
Precipitation 0.01 in 0.09 in - ()
Sea Level Pressure  
Sea Level Pressure 30.18 in    
Wind  
Wind Speed 5 mph ()    
Max Wind Speed 10 mph    
Max Gust Speed -    
Visibility 12.8 miles    
Events Rain    
Averages and records for this station are not official NWS values.
T = Trace of Precipitation, MM = Missing Value Source: Averaged Metar Reports

Daily Weather History Graph

Daily Weather History Graph

Search for Another Location

Airport or City:

Trip Planner

Search our weather history database for the weather conditions in past years. The results will help you decide how hot, cold, wet, or windy it might be!

Date:

Astronomy

Oct. 04, 2011 Rise Set
Actual Time 7:20 AM EDT 6:56 PM EDT
Civil Twilight 6:51 AM EDT 7:24 PM EDT
Nautical Twilight 6:18 AM EDT 7:57 PM EDT
Astronomical Twilight 5:45 AM EDT 8:30 PM EDT
Moon 3:07 PM EDT (10/4) No Moon Set
Length of Visible Light 12h 32m
Length of Day
11h 35m
First Quarter, 56% of the Moon is Illuminated
Oct 4
First Quarter
Oct 11
Full
Oct 19
Last Quarter
Oct 26
New
Nov 2
First Quarter

Hourly Weather History & Observations

Time (EDT) Temp. Dew Point Humidity Pressure Visibility Wind Dir Wind Speed Gust Speed Precip Events Conditions
12:00 AM 53.6 °F 53.6 °F 100% 30.15 in 4.0 mi NNW 4.6 mph - N/A Rain Light Rain Showers
1:00 AM 51.8 °F 51.8 °F 100% 30.14 in 4.0 mi NW 3.5 mph - N/A Rain Light Rain Showers
2:00 AM 53 °F 53 °F 99% 30.14 in 4 mi NW 3.5 mph - - Rain Light Rain Showers
2:00 AM 53.6 °F 53.6 °F 100% 30.14 in 4.0 mi NW 3.5 mph - N/A Rain Light Rain Showers
5:00 AM 53.6 °F 53.6 °F 100% 30.14 in 6.0 mi NW 4.6 mph - N/A Rain Light Rain Showers
6:00 AM 53.6 °F 53.6 °F 100% 30.14 in 15.0 mi West 4.6 mph - N/A Rain Light Rain Showers
6:27 AM - - N/A% - 15.0 mi West 6.9 mph - N/A   Mostly Cloudy
7:00 AM 53.6 °F 51.8 °F 94% 30.16 in 15.0 mi WNW 4.6 mph - N/A   Mostly Cloudy
8:00 AM 52 °F 51 °F 96% 30.18 in 15 mi NW 8.1 mph - -   Partly Cloudy
8:00 AM 51.8 °F 51.8 °F 100% 30.18 in 15.0 mi NW 8.1 mph - N/A   Mostly Cloudy
9:00 AM 53.6 °F 51.8 °F 94% 30.19 in 15.0 mi NNW 5.8 mph - N/A   Partly Cloudy
11:00 AM 59.0 °F 51.8 °F 77% 30.22 in 15.0 mi North 6.9 mph - N/A   Partly Cloudy
12:00 PM 60.8 °F 53.6 °F 77% 30.22 in 15.0 mi NW 5.8 mph - N/A   Scattered Clouds
2:00 PM 66 °F 50 °F 47% 30.19 in 15 mi NW 9.2 mph - -   Scattered Clouds
2:00 PM 66.2 °F 50.0 °F 56% 30.19 in 15.0 mi NW 10.4 mph - N/A   Partly Cloudy
4:00 PM 68.0 °F 48.2 °F 49% 30.17 in 15.0 mi West 8.1 mph - N/A   Partly Cloudy
5:00 PM 68.0 °F 46.4 °F 46% 30.17 in 15.0 mi NW 8.1 mph - N/A   Partly Cloudy
6:00 PM 66.2 °F 48.2 °F 52% 30.17 in 15.0 mi WNW 5.8 mph - N/A   Clear
7:00 PM 60.8 °F 48.2 °F 63% 30.18 in 15.0 mi WNW 5.8 mph - N/A   Clear
8:00 PM 57 °F 48 °F 64% 30.19 in 15 mi WNW 5.8 mph - -  
8:00 PM 57.2 °F 48.2 °F 72% 30.19 in 15.0 mi WNW 5.8 mph - N/A   Clear
9:00 PM 53.6 °F 46.4 °F 77% 30.19 in 15.0 mi NW 6.9 mph - N/A   Clear
10:00 PM 53.6 °F 44.6 °F 72% 30.20 in 15.0 mi North 2.3 mph - N/A   Clear
11:00 PM 50.0 °F 44.6 °F 82% 30.20 in 15.0 mi West 2.3 mph - N/A   Clear